| time (UTC) | temp F | wind direction | speed MPH | gust MPH | rain 1hr in | rain 24hr in | rain mn in | humidity % | barometer mb |
| 20260503203107 | 59 | 233 | 5.0 | 6.0 | 0.00 | 0.00 | 0.00 | 36 | 1096.4 |
| 20260503202604 | 60 | 317 | 7.0 | 11.0 | 0.00 | 0.00 | 0.00 | 34 | 1096.4 |
| 20260503202102 | 59 | 227 | 5.0 | 11.0 | 0.00 | 0.00 | 0.00 | 35 | 1096.8 |
| 20260503201600 | 59 | 161 | 6.0 | 10.0 | 0.00 | 0.00 | 0.00 | 36 | 1096.7 |
| 20260503201057 | 58 | 356 | 4.0 | 7.0 | 0.00 | 0.00 | 0.00 | 36 | 1096.7 |
| 20260503200553 | 58 | 69 | 2.0 | 8.0 | 0.00 | 0.00 | 0.00 | 37 | 1096.9 |
| 20260503200050 | 59 | 226 | 9.0 | 11.0 | 0.00 | 0.00 | 0.00 | 35 | 1096.8 |
| 20260503195547 | 59 | 260 | 6.0 | 10.0 | 0.00 | 0.00 | 0.00 | 34 | 1096.9 |
| 20260503195044 | 58 | 294 | 5.0 | 17.0 | 0.00 | 0.00 | 0.00 | 36 | 1097.2 |
| 20260503194541 | 58 | 332 | 1.0 | 10.0 | 0.00 | 0.00 | 0.00 | 35 | 1097.3 |
| 20260503194041 | 59 | 306 | 4.0 | 13.0 | 0.00 | 0.00 | 0.00 | 35 | 1097.2 |
| 20260503193538 | 58 | 267 | 6.0 | 15.0 | 0.00 | 0.00 | 0.00 | 34 | 1097.3 |
| 20260503193033 | 57 | 357 | 2.0 | 7.0 | 0.00 | 0.00 | 0.00 | 35 | 1097.3 |
| 20260503192530 | 59 | 222 | 8.0 | 13.0 | 0.00 | 0.00 | 0.00 | 34 | 1097.4 |
| 20260503192025 | 58 | 332 | 5.0 | 10.0 | 0.00 | 0.00 | 0.00 | 37 | 1097.5 |
| 20260503191522 | 58 | 274 | 8.0 | 10.0 | 0.00 | 0.00 | 0.00 | 34 | 1097.5 |
| 20260503191019 | 58 | 153 | 1.0 | 6.0 | 0.00 | 0.00 | 0.00 | 38 | 1097.8 |
| 20260503190516 | 59 | 233 | 8.0 | 14.0 | 0.00 | 0.00 | 0.00 | 36 | 1097.8 |
| 20260503190014 | 58 | 152 | 6.0 | 10.0 | 0.00 | 0.00 | 0.00 | 35 | 1097.6 |
| 20260503185510 | 59 | 255 | 7.0 | 15.0 | 0.00 | 0.00 | 0.00 | 36 | 1097.9 |
| 20260503185009 | 58 | 249 | 4.0 | 13.0 | 0.00 | 0.00 | 0.00 | 37 | 1097.9 |
| 20260503184506 | 57 | 321 | 7.0 | 18.0 | 0.00 | 0.00 | 0.00 | 37 | 1098.1 |
| 20260503184002 | 57 | 332 | 8.0 | 11.0 | 0.00 | 0.00 | 0.00 | 37 | 1098.4 |
| 20260503183459 | 57 | 272 | 9.0 | 14.0 | 0.00 | 0.00 | 0.00 | 37 | 1098.1 |
| 20260503182956 | 56 | 184 | 7.0 | 10.0 | 0.00 | 0.00 | 0.00 | 39 | 1098.2 |
| 20260503182455 | 56 | 293 | 6.0 | 11.0 | 0.00 | 0.00 | 0.00 | 39 | 1098.4 |
| 20260503181952 | 56 | 268 | 1.0 | 7.0 | 0.00 | 0.00 | 0.00 | 39 | 1098.4 |
| 20260503181449 | 57 | 146 | 10.0 | 14.0 | 0.00 | 0.00 | 0.00 | 38 | 1098.3 |
| 20260503180945 | 58 | 337 | 1.0 | 9.0 | 0.00 | 0.00 | 0.00 | 36 | 1098.3 |
| 20260503180443 | 58 | 179 | 4.0 | 8.0 | 0.00 | 0.00 | 0.00 | 37 | 1098.5 |
| 20260503175940 | 56 | 166 | 3.0 | 4.0 | 0.00 | 0.00 | 0.00 | 37 | 1098.3 |
| 20260503175438 | 56 | 282 | 14.0 | 21.0 | 0.00 | 0.00 | 0.00 | 36 | 1098.7 |
| 20260503174933 | 56 | 228 | 3.0 | 9.0 | 0.00 | 0.00 | 0.00 | 37 | 1098.7 |
| 20260503174432 | 56 | 278 | 5.0 | 8.0 | 0.00 | 0.00 | 0.00 | 40 | 1098.6 |
| 20260503173932 | 57 | 207 | 7.0 | 9.0 | 0.00 | 0.00 | 0.00 | 37 | 1098.7 |
| 20260503173428 | 56 | 197 | 5.0 | 7.0 | 0.00 | 0.00 | 0.00 | 37 | 1099.0 |
| 20260503172925 | 54 | 284 | 4.0 | 6.0 | 0.00 | 0.00 | 0.00 | 39 | 1099.0 |
| 20260503172422 | 55 | 207 | 13.0 | 15.0 | 0.00 | 0.00 | 0.00 | 36 | 1099.0 |
| 20260503171918 | 56 | 181 | 3.0 | 13.0 | 0.00 | 0.00 | 0.00 | 40 | 1099.1 |
| 20260503171415 | 55 | 332 | 12.0 | 16.0 | 0.00 | 0.00 | 0.00 | 36 | 1099.0 |
| 20260503170913 | 56 | 257 | 13.0 | 16.0 | 0.00 | 0.00 | 0.00 | 36 | 1099.2 |
| 20260503170409 | 55 | 95 | 4.0 | 9.0 | 0.00 | 0.00 | 0.00 | 37 | 1099.3 |
| 20260503150801 | 51 | 225 | 3.0 | 8.0 | 0.00 | 0.00 | 0.00 | 40 | 1100.1 |
| 20260503150257 | 51 | 295 | 4.0 | 7.0 | 0.00 | 0.00 | 0.00 | 41 | 1100.0 |
| 20260503140222 | 48 | 281 | 4.0 | 8.0 | 0.00 | 0.00 | 0.00 | 52 | 1100.4 |
| 20260503131151 | 44 | 285 | 7.0 | 10.0 | 0.00 | 0.00 | 0.00 | 62 | 1100.8 |
| 20260503130648 | 44 | 5 | 3.0 | 8.0 | 0.00 | 0.00 | 0.00 | 65 | 1100.9 |
| 20260503130146 | 44 | 277 | 5.0 | 8.0 | 0.00 | 0.00 | 0.00 | 65 | 1100.8 |
| 20260503120112 | 36 | 36 | 0.0 | 1.0 | 0.00 | 0.00 | 0.00 | 96 | 1100.4 |
| 20260503110539 | 31 | 27 | 0.0 | 0.0 | 0.00 | 0.00 | 0.00 | 96 | 1100.0 |
| 20260503090426 | 32 | 36 | 0.0 | 0.0 | 0.00 | 0.00 | 0.00 | 97 | 1099.3 |
| 20260503081352 | 32 | 17 | 0.0 | 0.0 | 0.00 | 0.00 | 0.00 | 96 | 1099.1 |
| 20260503080849 | 33 | 17 | 0.0 | 0.0 | 0.00 | 0.00 | 0.00 | 95 | 1099.5 |
| 20260503080346 | 33 | 12 | 0.0 | 0.0 | 0.00 | 0.00 | 0.00 | 95 | 1099.3 |
| 20260503072823 | 33 | 19 | 0.0 | 0.0 | 0.00 | 0.00 | 0.00 | 96 | 1099.1 |
| 20260503072319 | 33 | 19 | 0.0 | 0.0 | 0.00 | 0.00 | 0.00 | 96 | 1099.0 |
| 20260503071815 | 33 | 19 | 0.0 | 0.0 | 0.00 | 0.00 | 0.00 | 96 | 1099.2 |
| 20260503071313 | 33 | 19 | 0.0 | 0.0 | 0.00 | 0.00 | 0.00 | 96 | 1099.1 |
| 20260503070809 | 33 | 18 | 0.0 | 0.0 | 0.00 | 0.00 | 0.00 | 96 | 1098.9 |
| 20260503070307 | 33 | 18 | 0.0 | 0.0 | 0.00 | 0.00 | 0.00 | 96 | 1099.0 |
| 20260503060238 | 32 | 18 | 0.0 | 0.0 | 0.00 | 0.00 | 0.00 | 96 | 1099.1 |
| 20260503054725 | 33 | 17 | 0.0 | 0.0 | 0.00 | 0.00 | 0.00 | 96 | 1099.2 |
| 20260503054222 | 33 | 18 | 0.0 | 0.0 | 0.00 | 0.00 | 0.00 | 96 | 1099.2 |
| 20260503053720 | 32 | 21 | 0.0 | 0.0 | 0.00 | 0.00 | 0.00 | 95 | 1099.3 |
| 20260503053219 | 33 | 21 | 0.0 | 0.0 | 0.00 | 0.00 | 0.00 | 95 | 1099.3 |
| 20260503052714 | 33 | 21 | 0.0 | 0.0 | 0.00 | 0.00 | 0.00 | 95 | 1099.5 |
| 20260503052211 | 32 | 21 | 0.0 | 0.0 | 0.00 | 0.00 | 0.00 | 95 | 1099.3 |
| 20260503051706 | 32 | 20 | 0.0 | 1.0 | 0.00 | 0.00 | 0.00 | 95 | 1099.3 |
| 20260503051204 | 33 | 22 | 0.0 | 0.0 | 0.00 | 0.00 | 0.00 | 95 | 1099.3 |
| 20260503050700 | 33 | 20 | 0.0 | 0.0 | 0.00 | 0.00 | 0.00 | 95 | 1099.3 |
| 20260503050157 | 33 | 19 | 0.0 | 0.0 | 0.00 | 0.00 | 0.00 | 95 | 1099.4 |
| 20260503045655 | 33 | 10 | 0.0 | 1.0 | 0.00 | 0.00 | 0.00 | 95 | 1099.6 |
| 20260503045152 | 32 | 21 | 0.0 | 0.0 | 0.00 | 0.00 | 0.00 | 95 | 1099.3 |
| 20260503044648 | 32 | 20 | 0.0 | 0.0 | 0.00 | 0.00 | 0.00 | 95 | 1099.7 |
| 20260503044146 | 32 | 20 | 0.0 | 0.0 | 0.00 | 0.00 | 0.00 | 95 | 1099.6 |
| 20260503043642 | 32 | 20 | 0.0 | 0.0 | 0.00 | 0.00 | 0.00 | 94 | 1099.5 |
| 20260503043139 | 33 | 20 | 0.0 | 0.0 | 0.00 | 0.00 | 0.00 | 94 | 1099.4 |
| 20260503042636 | 34 | 0 | 1.0 | 1.0 | 0.00 | 0.00 | 0.00 | 95 | 1099.7 |
| 20260503042132 | 33 | 19 | 0.0 | 0.0 | 0.00 | 0.00 | 0.00 | 96 | 1099.5 |
| 20260503041629 | 32 | 12 | 0.0 | 0.0 | 0.00 | 0.00 | 0.00 | 95 | 1099.6 |
| 20260503041126 | 32 | 20 | 0.0 | 0.0 | 0.00 | 0.00 | 0.00 | 94 | 1099.6 |
| 20260503040624 | 33 | 15 | 0.0 | 0.0 | 0.00 | 0.00 | 0.00 | 94 | 1099.7 |
| 20260503040121 | 32 | 17 | 0.0 | 0.0 | 0.00 | 0.02 | 0.02 | 94 | 1099.7 |
| 20260503035617 | 32 | 12 | 0.0 | 0.0 | 0.00 | 0.02 | 0.02 | 94 | 1099.4 |
| 20260503035115 | 32 | 16 | 0.0 | 0.0 | 0.00 | 0.02 | 0.02 | 94 | 1099.6 |
| 20260503034612 | 32 | 18 | 0.0 | 1.0 | 0.00 | 0.02 | 0.02 | 93 | 1099.8 |
| 20260503034109 | 32 | 7 | 1.0 | 1.0 | 0.00 | 0.02 | 0.02 | 93 | 1099.6 |
| 20260503033607 | 33 | 7 | 0.0 | 1.0 | 0.00 | 0.02 | 0.02 | 93 | 1099.6 |
| 20260503033104 | 33 | 8 | 0.0 | 0.0 | 0.00 | 0.02 | 0.02 | 92 | 1099.6 |
| 20260503032602 | 33 | 358 | 1.0 | 1.0 | 0.00 | 0.02 | 0.02 | 92 | 1099.7 |
| 20260503032100 | 33 | 14 | 1.0 | 1.0 | 0.00 | 0.02 | 0.02 | 91 | 1099.6 |
| 20260503031558 | 33 | 12 | 0.0 | 1.0 | 0.00 | 0.02 | 0.02 | 90 | 1099.6 |
| 20260503031055 | 33 | 5 | 1.0 | 1.0 | 0.00 | 0.02 | 0.02 | 89 | 1099.6 |
| 20260503030550 | 35 | 16 | 0.0 | 1.0 | 0.00 | 0.02 | 0.02 | 88 | 1099.6 |
| 20260503030048 | 35 | 356 | 1.0 | 1.0 | 0.00 | 0.02 | 0.02 | 88 | 1099.7 |
| 20260503025545 | 35 | 359 | 1.0 | 1.0 | 0.00 | 0.02 | 0.02 | 86 | 1099.6 |
| 20260503025043 | 36 | 0 | 1.0 | 1.0 | 0.00 | 0.02 | 0.02 | 86 | 1099.8 |
| 20260503024538 | 36 | 342 | 0.0 | 1.0 | 0.00 | 0.02 | 0.02 | 86 | 1099.6 |
| 20260503024036 | 36 | 24 | 0.0 | 1.0 | 0.00 | 0.02 | 0.02 | 86 | 1099.6 |
| 20260503023532 | 37 | 2 | 0.0 | 1.0 | 0.00 | 0.02 | 0.02 | 85 | 1100.0 |
| 20260503023030 | 36 | 14 | 0.0 | 1.0 | 0.00 | 0.02 | 0.02 | 85 | 1099.7 |
| 20260503022526 | 37 | 10 | 0.0 | 1.0 | 0.00 | 0.02 | 0.02 | 84 | 1100.1 |
| 20260503022021 | 37 | 16 | 0.0 | 1.0 | 0.00 | 0.02 | 0.02 | 84 | 1099.8 |
| 20260503021518 | 37 | 17 | 1.0 | 1.0 | 0.00 | 0.02 | 0.02 | 83 | 1099.7 |
| 20260503021015 | 38 | 357 | 1.0 | 1.0 | 0.00 | 0.02 | 0.02 | 81 | 1099.6 |
| 20260503020512 | 39 | 17 | 0.0 | 0.0 | 0.00 | 0.02 | 0.02 | 82 | 1099.8 |
| 20260503020009 | 38 | 16 | 0.0 | 0.0 | 0.00 | 0.02 | 0.02 | 82 | 1099.7 |
| 20260503015505 | 38 | 15 | 0.0 | 0.0 | 0.00 | 0.02 | 0.02 | 80 | 1099.6 |
| 20260503015002 | 39 | 23 | 0.0 | 0.0 | 0.00 | 0.02 | 0.02 | 79 | 1099.7 |
| 20260503014458 | 40 | 19 | 0.0 | 0.0 | 0.00 | 0.02 | 0.02 | 78 | 1099.7 |
| 20260503013956 | 40 | 18 | 0.0 | 0.0 | 0.00 | 0.02 | 0.02 | 77 | 1099.8 |
| 20260503013453 | 40 | 17 | 0.0 | 0.0 | 0.00 | 0.02 | 0.02 | 75 | 1099.8 |
| 20260503012950 | 40 | 17 | 0.0 | 0.0 | 0.00 | 0.02 | 0.02 | 71 | 1100.2 |
| 20260503012449 | 41 | 19 | 0.0 | 0.0 | 0.00 | 0.02 | 0.02 | 71 | 1099.7 |
| 20260503011944 | 41 | 14 | 1.0 | 1.0 | 0.00 | 0.02 | 0.02 | 71 | 1099.7 |
| 20260503011441 | 41 | 14 | 0.0 | 2.0 | 0.00 | 0.02 | 0.02 | 69 | 1099.5 |
| 20260503010938 | 41 | 1 | 0.0 | 1.0 | 0.00 | 0.02 | 0.02 | 70 | 1099.5 |
| 20260503010435 | 41 | 17 | 0.0 | 0.0 | 0.00 | 0.02 | 0.02 | 70 | 1099.5 |
| 20260503005932 | 41 | 11 | 1.0 | 2.0 | 0.00 | 0.02 | 0.02 | 70 | 1099.5 |
| 20260503005430 | 41 | 17 | 0.0 | 1.0 | 0.00 | 0.02 | 0.02 | 70 | 1099.4 |
| 20260503004926 | 41 | 17 | 0.0 | 0.0 | 0.00 | 0.02 | 0.02 | 70 | 1099.6 |
| 20260503004423 | 41 | 7 | 0.0 | 2.0 | 0.00 | 0.02 | 0.02 | 69 | 1099.5 |
| 20260503003921 | 41 | 11 | 0.0 | 2.0 | 0.00 | 0.02 | 0.02 | 69 | 1099.3 |
| 20260503003417 | 41 | 315 | 1.0 | 2.0 | 0.00 | 0.02 | 0.02 | 70 | 1099.3 |
| 20260503002915 | 41 | 18 | 0.0 | 1.0 | 0.00 | 0.02 | 0.02 | 70 | 1099.4 |
| 20260503002412 | 41 | 8 | 1.0 | 3.0 | 0.00 | 0.02 | 0.02 | 70 | 1099.3 |
| 20260503001908 | 41 | 19 | 1.0 | 2.0 | 0.00 | 0.02 | 0.02 | 70 | 1099.0 |
| 20260503001404 | 42 | 9 | 0.0 | 1.0 | 0.00 | 0.02 | 0.02 | 69 | 1099.3 |
| 20260503000902 | 42 | 8 | 0.0 | 1.0 | 0.00 | 0.02 | 0.02 | 70 | 1099.3 |
| 20260503000400 | 42 | 347 | 2.0 | 2.0 | 0.00 | 0.02 | 0.02 | 67 | 1099.0 |
| 20260502235856 | 42 | 15 | 0.0 | 1.0 | 0.00 | 0.02 | 0.02 | 68 | 1099.0 |
| 20260502235353 | 42 | 10 | 1.0 | 1.0 | 0.00 | 0.02 | 0.02 | 66 | 1098.9 |
| 20260502234850 | 42 | 355 | 1.0 | 2.0 | 0.00 | 0.02 | 0.02 | 65 | 1099.1 |
| 20260502234347 | 42 | 303 | 3.0 | 3.0 | 0.00 | 0.02 | 0.02 | 66 | 1099.1 |
| 20260502233844 | 42 | 5 | 1.0 | 2.0 | 0.00 | 0.02 | 0.02 | 66 | 1099.0 |
| 20260502233339 | 42 | 5 | 1.0 | 3.0 | 0.00 | 0.02 | 0.02 | 65 | 1099.0 |
| 20260502232837 | 42 | 340 | 2.0 | 3.0 | 0.00 | 0.02 | 0.02 | 64 | 1099.1 |
| 20260502232333 | 42 | 12 | 2.0 | 4.0 | 0.00 | 0.02 | 0.02 | 64 | 1098.9 |
| 20260502231829 | 42 | 314 | 7.0 | 9.0 | 0.00 | 0.02 | 0.02 | 63 | 1098.7 |
| 20260502231328 | 42 | 347 | 4.0 | 6.0 | 0.00 | 0.02 | 0.02 | 63 | 1098.9 |
| 20260502230825 | 42 | 309 | 3.0 | 4.0 | 0.00 | 0.02 | 0.02 | 64 | 1098.9 |
| 20260502230323 | 42 | 14 | 1.0 | 4.0 | 0.00 | 0.02 | 0.02 | 64 | 1099.0 |
| 20260502225820 | 43 | 303 | 4.0 | 7.0 | 0.00 | 0.02 | 0.02 | 65 | 1099.0 |
| 20260502225317 | 43 | 344 | 2.0 | 3.0 | 0.00 | 0.02 | 0.02 | 66 | 1099.0 |
| 20260502224813 | 43 | 5 | 3.0 | 3.0 | 0.00 | 0.02 | 0.02 | 66 | 1099.0 |
| 20260502224309 | 43 | 13 | 3.0 | 6.0 | 0.00 | 0.02 | 0.02 | 67 | 1099.1 |
| 20260502223807 | 43 | 10 | 3.0 | 4.0 | 0.00 | 0.02 | 0.02 | 68 | 1098.7 |
| 20260502223305 | 43 | 4 | 2.0 | 6.0 | 0.00 | 0.02 | 0.02 | 67 | 1099.0 |
| 20260502222802 | 43 | 10 | 2.0 | 3.0 | 0.00 | 0.02 | 0.02 | 68 | 1098.9 |
| 20260502222300 | 43 | 10 | 3.0 | 3.0 | 0.00 | 0.02 | 0.02 | 67 | 1099.0 |
| 20260502221755 | 43 | 21 | 1.0 | 7.0 | 0.00 | 0.02 | 0.02 | 67 | 1099.1 |
| 20260502221252 | 43 | 346 | 5.0 | 7.0 | 0.00 | 0.02 | 0.02 | 68 | 1098.9 |
| 20260502220749 | 43 | 359 | 4.0 | 7.0 | 0.00 | 0.02 | 0.02 | 66 | 1098.9 |
| 20260502220244 | 43 | 347 | 2.0 | 3.0 | 0.00 | 0.02 | 0.02 | 68 | 1099.3 |
| 20260502215741 | 42 | 12 | 4.0 | 7.0 | 0.00 | 0.02 | 0.02 | 67 | 1099.1 |
| 20260502215239 | 42 | 356 | 2.0 | 3.0 | 0.00 | 0.02 | 0.02 | 68 | 1099.1 |
| 20260502214736 | 42 | 314 | 4.0 | 4.0 | 0.00 | 0.02 | 0.02 | 68 | 1099.0 |
| 20260502214234 | 42 | 8 | 3.0 | 6.0 | 0.00 | 0.02 | 0.02 | 68 | 1098.9 |
| 20260502213730 | 42 | 296 | 3.0 | 7.0 | 0.00 | 0.02 | 0.02 | 69 | 1098.9 |
| 20260502213227 | 42 | 11 | 2.0 | 3.0 | 0.00 | 0.02 | 0.02 | 71 | 1098.9 |
| 20260502212726 | 42 | 336 | 3.0 | 6.0 | 0.00 | 0.02 | 0.02 | 70 | 1098.7 |
| 20260502212224 | 42 | 346 | 4.0 | 8.0 | 0.00 | 0.02 | 0.02 | 69 | 1098.9 |
| 20260502211719 | 42 | 14 | 3.0 | 6.0 | 0.00 | 0.02 | 0.02 | 69 | 1098.9 |
| 20260502211216 | 42 | 342 | 5.0 | 8.0 | 0.00 | 0.02 | 0.02 | 68 | 1098.9 |
| 20260502210713 | 43 | 342 | 7.0 | 8.0 | 0.00 | 0.02 | 0.02 | 67 | 1098.6 |
| 20260502210211 | 43 | 6 | 8.0 | 10.0 | 0.00 | 0.02 | 0.02 | 66 | 1098.7 |
| 20260502205708 | 43 | 267 | 4.0 | 7.0 | 0.00 | 0.02 | 0.02 | 67 | 1098.6 |
| 20260502205204 | 43 | 10 | 3.0 | 9.0 | 0.00 | 0.02 | 0.02 | 67 | 1098.7 |
| 20260502204701 | 43 | 340 | 3.0 | 7.0 | 0.00 | 0.02 | 0.02 | 69 | 1098.9 |
| 20260502204159 | 43 | 356 | 4.0 | 6.0 | 0.00 | 0.02 | 0.02 | 70 | 1098.6 |
| 20260502203656 | 43 | 38 | 2.0 | 9.0 | 0.00 | 0.02 | 0.02 | 69 | 1098.6 |